K5NCO Weather Reports


time (UTC)temp
F
wind
direction
speed
knots
gust
knots
rain 1hr
in
rain 24hr
in
rain mn
in
humidity
%
barometer
mb
20260509005942 77 113 3.5 5.2 0.00 0.00 0.00 84 1010.5
20260509005440 77 94 1.7 2.6 0.00 0.00 0.00 83 1010.5
20260509004935 77 76 4.3 7.0 0.00 0.00 0.00 83 1010.3
20260509004431 77 82 5.2 6.1 0.00 0.00 0.00 83 1010.3
20260509003929 77 88 2.6 3.5 0.00 0.00 0.00 83 1010.4
20260509003427 77 64 2.6 2.6 0.00 0.00 0.00 82 1010.4
20260509002923 77 81 1.7 3.5 0.00 0.00 0.00 82 1010.5
20260509002422 77 101 3.5 5.2 0.00 0.00 0.00 82 1010.4
20260509001918 77 111 3.5 5.2 0.00 0.00 0.00 82 1010.4
20260509001415 77 113 3.5 5.2 0.00 0.00 0.00 82 1010.5
20260509000912 77 87 1.7 2.6 0.00 0.00 0.00 82 1010.4
20260509000410 78 11 0.9 0.9 0.00 0.00 0.00 82 1010.6
20260508235905 78 43 0.9 2.6 0.00 0.00 0.00 81 1010.4
20260508235403 78 96 2.6 3.5 0.00 0.00 0.00 80 1010.5
20260508234900 78 38 1.7 1.7 0.00 0.00 0.00 80 1010.4
20260508234356 78 83 4.3 6.1 0.00 0.00 0.00 80 1010.3
20260508233855 78 101 5.2 7.0 0.00 0.00 0.00 80 1010.5
20260508233354 78 104 4.3 7.0 0.00 0.00 0.00 80 1010.4
20260508232850 78 80 2.6 2.6 0.00 0.00 0.00 80 1010.6
20260508232347 78 93 3.5 3.5 0.00 0.00 0.00 80 1010.5
20260508231845 78 82 0.0 0.0 0.00 0.00 0.00 81 1010.4
20260508231341 78 125 0.9 1.7 0.00 0.00 0.00 81 1010.3
20260508230838 77 100 5.2 6.1 0.00 0.00 0.00 81 1010.3
20260508230334 77 87 3.5 3.5 0.00 0.00 0.00 81 1010.5
20260508225832 77 58 0.0 1.7 0.00 0.00 0.00 82 1010.5
20260508225328 77 89 3.5 6.1 0.00 0.00 0.00 82 1010.5
20260508224827 77 83 3.5 3.5 0.00 0.00 0.00 82 1010.6
20260508224324 77 16 0.9 1.7 0.00 0.00 0.00 82 1010.5
20260508223821 77 66 3.5 6.1 0.00 0.00 0.00 81 1010.5
20260508223318 77 68 1.7 1.7 0.00 0.00 0.00 81 1010.4
20260508222816 77 93 4.3 7.8 0.00 0.00 0.00 81 1010.3
20260508222313 78 66 2.6 5.2 0.00 0.00 0.00 81 1010.7
20260508221809 78 354 2.6 5.2 0.00 0.00 0.00 81 1010.5
20260508221305 78 16 2.6 5.2 0.00 0.00 0.00 80 1010.5
20260508220801 78 52 2.6 5.2 0.00 0.00 0.00 79 1010.6
20260508220258 78 69 7.0 7.8 0.00 0.00 0.00 80 1010.5
20260508215755 78 35 1.7 5.2 0.00 0.00 0.00 80 1010.6
20260508215251 77 71 4.3 5.2 0.00 0.00 0.00 80 1010.6
20260508214749 77 46 4.3 6.1 0.00 0.00 0.00 80 1010.7
20260508214246 78 67 1.7 3.5 0.00 0.00 0.00 79 1010.9
20260508213742 78 23 1.7 2.6 0.00 0.00 0.00 79 1010.8
20260508213238 77 75 0.9 1.7 0.00 0.00 0.00 81 1010.8
20260508212730 78 31 2.6 3.5 0.00 0.00 0.00 79 1010.7
20260508212226 78 68 3.5 7.0 0.00 0.00 0.00 78 1011.0
20260508211722 78 14 0.0 0.0 0.00 0.00 0.00 79 1011.1
20260508211218 78 103 1.7 2.6 0.00 0.00 0.00 79 1011.1
20260508210715 79 101 3.5 5.2 0.00 0.00 0.00 78 1011.2
20260508210212 78 52 0.9 2.6 0.00 0.00 0.00 79 1011.5
20260508205709 78 47 3.5 5.2 0.00 0.00 0.00 78 1011.4
20260508205205 77 79 1.7 2.6 0.00 0.00 0.00 80 1011.4
20260508204701 78 67 5.2 7.0 0.00 0.00 0.00 78 1011.5
20260508204158 77 325 1.7 2.6 0.00 0.00 0.00 78 1011.5
20260508203654 79 33 3.5 3.5 0.00 0.00 0.00 77 1011.8
20260508203150 77 327 0.0 0.9 0.00 0.00 0.00 79 1011.5
20260508202647 77 34 1.7 2.6 0.00 0.00 0.00 80 1011.6
20260508202144 78 165 1.7 2.6 0.00 0.00 0.00 78 1011.8
20260508201641 77 359 3.5 5.2 0.00 0.00 0.00 77 1011.9
20260508201137 76 56 0.9 1.7 0.00 0.00 0.00 80 1011.9
20260508200634 76 55 2.6 3.5 0.00 0.00 0.00 80 1012.1
20260508200130 75 76 1.7 2.6 0.00 0.00 0.00 79 1012.3
20260508195627 75 49 2.6 3.5 0.00 0.00 0.00 80 1012.2
20260508195123 76 53 3.5 5.2 0.00 0.00 0.00 79 1012.3
20260508194620 75 31 0.9 1.7 0.00 0.00 0.00 79 1012.5
20260508194117 75 40 4.3 6.1 0.00 0.00 0.00 79 1012.4
20260508193614 76 56 1.7 2.6 0.00 0.00 0.00 79 1012.5
20260508193110 75 81 3.5 3.5 0.00 0.00 0.00 78 1012.5
20260508192607 77 85 5.2 6.1 0.00 0.00 0.00 77 1012.4
20260508192104 77 76 1.7 2.6 0.00 0.00 0.00 77 1012.6
20260508191601 76 81 7.0 9.6 0.00 0.00 0.00 77 1012.5
20260508191057 76 97 3.5 5.2 0.00 0.00 0.00 77 1012.7
20260508190549 77 68 2.6 2.6 0.00 0.00 0.00 76 1012.5
20260508190045 77 24 0.0 0.0 0.00 0.00 0.00 77 1012.8
20260508185543 76 21 4.3 5.2 0.00 0.00 0.00 77 1012.7
20260508185040 75 353 2.6 3.5 0.00 0.00 0.00 77 1012.7
20260508184537 75 23 3.5 6.1 0.00 0.00 0.00 77 1012.9
20260508184034 75 71 3.5 6.1 0.00 0.00 0.00 77 1013.2
20260508183531 74 142 1.7 1.7 0.00 0.00 0.00 78 1013.0
20260508183027 75 55 1.7 2.6 0.00 0.00 0.00 77 1013.2
20260508182523 76 340 2.6 2.6 0.00 0.00 0.00 75 1013.5
20260508182020 75 149 1.7 2.6 0.00 0.00 0.00 77 1013.4
20260508181515 76 39 0.0 0.9 0.00 0.00 0.00 76 1013.5
20260508181013 74 315 0.9 1.7 0.00 0.00 0.00 77 1013.5
20260508180509 75 72 1.7 1.7 0.00 0.00 0.00 76 1013.8
20260508180006 76 38 3.5 5.2 0.00 0.00 0.00 75 1013.8
20260508175502 74 23 0.9 0.9 0.00 0.00 0.00 77 1013.9
20260508175000 73 14 0.9 0.9 0.00 0.00 0.00 79 1013.8
20260508174457 73 89 5.2 6.1 0.00 0.00 0.00 78 1014.0
20260508173954 71 82 0.9 1.7 0.00 0.00 0.00 81 1013.8
20260508173451 72 80 1.7 2.6 0.00 0.00 0.00 82 1013.9
20260508172947 71 332 0.9 1.7 0.00 0.00 0.00 79 1014.0
20260508172444 71 58 1.7 2.6 0.00 0.00 0.00 80 1014.0
20260508171941 71 0 2.6 2.6 0.00 0.00 0.00 81 1014.0
20260508171437 70 26 4.3 6.1 0.00 0.00 0.00 80 1014.1
20260508170934 70 345 4.3 5.2 0.00 0.00 0.00 80 1014.3
20260508170431 69 65 1.7 3.5 0.00 0.00 0.00 82 1014.3
20260508165928 70 13 1.7 1.7 0.00 0.00 0.00 81 1014.2
20260508165426 69 307 0.9 0.9 0.00 0.00 0.00 81 1014.6
20260508164921 70 302 2.6 2.6 0.00 0.00 0.00 81 1014.5
20260508164419 69 342 1.7 1.7 0.00 0.00 0.00 80 1014.7
20260508163916 69 24 0.0 0.9 0.00 0.00 0.00 81 1014.7
20260508163414 69 17 0.0 0.9 0.00 0.00 0.00 82 1014.7
20260508162909 69 32 0.9 0.9 0.00 0.00 0.00 81 1015.0
20260508162407 68 334 0.9 0.9 0.00 0.00 0.00 82 1014.9
20260508161903 69 13 0.9 2.6 0.00 0.00 0.00 81 1014.9
20260508161401 69 308 0.9 0.9 0.00 0.00 0.00 80 1014.9
20260508160858 69 19 2.6 2.6 0.00 0.00 0.00 80 1014.7
20260508160356 69 346 0.0 0.9 0.00 0.00 0.00 80 1015.2
20260508155852 69 19 1.7 1.7 0.00 0.00 0.00 82 1015.1
20260508155350 68 299 0.9 1.7 0.00 0.00 0.00 81 1015.1
20260508154846 68 292 0.9 1.7 0.00 0.00 0.00 81 1015.0
20260508154344 67 299 0.9 0.9 0.00 0.00 0.00 82 1015.1
20260508153840 67 315 0.9 0.9 0.00 0.00 0.00 82 1015.3
20260508153338 67 270 0.9 1.7 0.00 0.00 0.00 83 1015.2
20260508152833 67 318 0.9 1.7 0.00 0.00 0.00 83 1015.3
20260508152330 67 26 0.0 0.9 0.00 0.00 0.00 84 1015.2
20260508151826 66 193 0.0 0.0 0.00 0.00 0.00 83 1015.3
20260508151324 66 86 0.0 0.0 0.00 0.00 0.00 83 1015.4
20260508150820 66 91 0.9 1.7 0.00 0.00 0.00 85 1015.3
20260508150316 65 30 0.9 1.7 0.00 0.00 0.00 85 1015.3
20260508145807 65 125 2.6 2.6 0.00 0.00 0.00 85 1015.3
20260508145306 66 74 1.7 2.6 0.00 0.00 0.00 84 1015.1
20260508144800 65 62 0.9 2.6 0.00 0.00 0.00 85 1015.3
20260508144258 65 46 0.9 0.9 0.00 0.00 0.00 85 1015.3
20260508143756 65 26 0.9 1.7 0.00 0.00 0.00 84 1015.3
20260508143252 65 123 0.9 1.7 0.00 0.00 0.00 85 1015.2
20260508142749 64 87 3.5 3.5 0.00 0.00 0.00 85 1015.2
20260508142246 65 95 6.1 7.0 0.00 0.00 0.00 83 1015.3
20260508141742 64 70 1.7 1.7 0.00 0.00 0.00 84 1015.2
20260508141240 64 112 0.0 0.9 0.00 0.00 0.00 85 1015.4
20260508140737 64 23 0.9 1.7 0.00 0.00 0.00 85 1015.3
20260508140233 64 23 1.7 2.6 0.00 0.00 0.00 83 1015.3
20260508135730 63 35 0.0 0.0 0.00 0.00 0.00 85 1015.1
20260508135226 63 10 1.7 2.6 0.00 0.00 0.00 85 1015.2
20260508134721 63 46 0.0 0.0 0.00 0.00 0.00 85 1015.6
20260508134219 63 71 0.0 0.0 0.00 0.00 0.00 85 1015.5
20260508133716 63 31 0.0 0.0 0.00 0.00 0.00 86 1015.5
20260508133214 62 26 1.7 2.6 0.00 0.00 0.00 85 1015.3
20260508132711 62 345 0.0 0.0 0.00 0.00 0.00 85 1015.5
20260508132208 62 331 0.9 0.9 0.00 0.00 0.00 85 1015.7
20260508131703 62 334 0.0 0.0 0.00 0.00 0.00 85 1015.7
20260508131200 62 335 0.0 0.0 0.00 0.00 0.00 86 1015.6
20260508130657 62 346 0.0 0.9 0.00 0.00 0.00 86 1015.4
20260508130154 62 48 0.9 1.7 0.00 0.00 0.00 86 1015.4
20260508125649 62 46 1.7 1.7 0.00 0.00 0.00 86 1015.5
20260508125146 62 52 0.0 0.0 0.00 0.00 0.00 86 1015.5
20260508124644 61 348 0.0 0.9 0.00 0.00 0.00 87 1015.4
20260508124141 61 24 1.7 1.7 0.00 0.00 0.00 86 1015.4
20260508123640 61 11 2.6 2.6 0.00 0.00 0.00 86 1015.7
20260508123137 61 42 0.0 0.0 0.00 0.00 0.00 86 1015.8
20260508122633 61 347 1.7 1.7 0.00 0.00 0.00 86 1015.7
20260508122130 61 4 0.9 1.7 0.00 0.00 0.00 86 1015.9
20260508121628 61 18 0.0 0.9 0.00 0.00 0.00 86 1015.8
20260508121126 61 37 2.6 2.6 0.00 0.00 0.00 86 1015.9
20260508120623 61 16 1.7 1.7 0.00 0.00 0.00 86 1015.9
20260508120122 61 79 2.6 2.6 0.00 0.00 0.00 86 1016.0
20260508115619 61 35 1.7 2.6 0.00 0.00 0.00 86 1015.8
20260508115116 61 0 0.0 0.0 0.00 0.00 0.00 86 1016.0
20260508114613 61 9 1.7 2.6 0.00 0.00 0.00 86 1016.1
20260508114108 61 17 0.9 0.9 0.00 0.00 0.00 86 1016.0
20260508113606 61 352 0.9 1.7 0.00 0.00 0.00 86 1016.4
20260508113105 61 347 1.7 2.6 0.00 0.00 0.00 86 1016.3
20260508112559 61 347 1.7 1.7 0.00 0.00 0.00 86 1016.2
20260508112057 61 337 2.6 3.5 0.00 0.00 0.00 86 1016.2
20260508111554 61 19 1.7 2.6 0.00 0.00 0.00 86 1016.2
20260508111051 61 33 1.7 3.5 0.00 0.00 0.00 86 1015.8
20260508110549 61 24 1.7 3.5 0.00 0.00 0.00 85 1015.8
20260508110044 61 23 1.7 1.7 0.00 0.00 0.00 85 1015.8
20260508105539 61 350 0.9 1.7 0.00 0.00 0.00 85 1015.7
20260508105037 62 13 2.6 3.5 0.00 0.00 0.00 84 1015.8
20260508104535 62 329 1.7 1.7 0.00 0.00 0.00 84 1015.8
20260508104031 62 331 3.5 5.2 0.00 0.00 0.00 84 1015.4
20260508103528 62 337 1.7 2.6 0.00 0.00 0.00 84 1015.5
20260508103025 62 340 2.6 3.5 0.00 0.00 0.00 84 1015.6
20260508102523 62 339 2.6 3.5 0.00 0.00 0.00 84 1015.9
20260508102021 62 23 2.6 2.6 0.00 0.00 0.00 84 1016.1
20260508101518 62 351 2.6 2.6 0.00 0.00 0.00 84 1016.3
20260508101015 62 307 0.0 0.0 0.00 0.00 0.00 84 1016.2
20260508100513 62 358 0.0 0.0 0.00 0.00 0.00 84 1016.1
20260508100010 62 6 2.6 2.6 0.00 0.00 0.00 84 1016.2
20260508095507 62 337 1.7 2.6 0.00 0.00 0.00 84 1016.4
20260508095003 62 333 0.9 0.9 0.00 0.00 0.00 84 1016.3
20260508094501 62 23 1.7 1.7 0.00 0.00 0.00 84 1016.4
20260508093957 61 351 0.9 0.9 0.00 0.00 0.00 84 1016.4
20260508093454 61 313 0.9 1.7 0.00 0.00 0.00 84 1016.4
20260508092952 61 6 2.6 2.6 0.00 0.00 0.00 85 1016.2
20260508092449 61 330 0.0 0.9 0.00 0.00 0.00 85 1016.1
20260508091948 61 2 0.9 1.7 0.00 0.00 0.00 85 1016.0
20260508091444 61 336 0.9 0.9 0.00 0.00 0.00 86 1016.2
20260508090942 61 355 1.7 1.7 0.00 0.00 0.00 86 1015.9
20260508090440 61 353 0.0 0.0 0.00 0.00 0.00 86 1016.0
20260508085935 61 344 0.0 0.0 0.00 0.00 0.00 86 1015.9
20260508085427 61 354 0.9 0.9 0.00 0.00 0.00 85 1015.8
20260508084923 61 36 1.7 1.7 0.00 0.00 0.00 85 1015.8
20260508084420 61 7 0.9 0.9 0.00 0.00 0.00 85 1015.8
20260508083918 61 5 0.0 0.9 0.00 0.00 0.00 85 1015.8
20260508083415 61 351 0.9 0.9 0.00 0.00 0.00 85 1015.8
20260508082915 61 340 0.9 0.9 0.00 0.00 0.00 85 1016.2
20260508082412 61 352 0.9 0.9 0.00 0.00 0.00 85 1015.9
20260508081910 61 347 0.0 0.0 0.00 0.00 0.00 85 1016.1
20260508081407 61 353 0.0 0.9 0.00 0.00 0.00 84 1016.0
20260508080903 61 26 0.0 0.9 0.00 0.00 0.00 84 1015.9
20260508080402 61 25 0.0 0.9 0.00 0.00 0.00 84 1015.9
20260508075857 61 16 0.0 0.9 0.00 0.00 0.00 84 1015.9
20260508075355 61 39 0.0 0.0 0.00 0.00 0.00 85 1015.9
20260508074852 61 349 0.9 1.7 0.00 0.00 0.00 84 1015.8
20260508074349 61 15 2.6 3.5 0.00 0.00 0.00 84 1015.4
20260508073846 61 21 1.7 2.6 0.00 0.00 0.00 84 1015.6
20260508073344 61 3 2.6 3.5 0.00 0.00 0.00 85 1015.6
20260508072841 61 42 1.7 1.7 0.00 0.00 0.00 85 1016.0
20260508072337 61 7 2.6 3.5 0.00 0.00 0.00 85 1015.9
20260508071834 61 34 2.6 3.5 0.00 0.00 0.00 85 1015.9
20260508071333 61 353 2.6 2.6 0.00 0.00 0.00 84 1015.7
20260508070830 61 7 3.5 3.5 0.00 0.00 0.00 84 1016.1
20260508070328 61 13 0.9 0.9 0.00 0.00 0.00 84 1016.4
20260508065825 61 23 0.9 1.7 0.00 0.00 0.00 85 1016.4
20260508065324 61 21 0.9 0.9 0.00 0.00 0.00 85 1016.2
20260508064822 61 0 0.9 1.7 0.00 0.00 0.00 85 1016.4
20260508064319 61 0 0.9 1.7 0.00 0.00 0.00 84 1016.4
20260508063816 61 357 1.7 1.7 0.00 0.00 0.00 84 1016.7
20260508063314 61 358 0.9 0.9 0.00 0.00 0.00 84 1016.8
20260508062811 61 5 0.0 0.0 0.00 0.00 0.00 85 1016.9
20260508062308 61 337 1.7 1.7 0.00 0.00 0.00 84 1017.0
20260508061805 60 320 1.7 1.7 0.00 0.00 0.00 85 1017.3
20260508061302 60 319 0.0 0.0 0.00 0.00 0.00 85 1016.8
20260508060759 60 339 0.9 1.7 0.00 0.00 0.00 85 1016.9
20260508060257 61 36 0.0 0.0 0.00 0.00 0.00 85 1016.6
20260508055752 61 15 0.0 0.0 0.00 0.00 0.00 85 1016.6
20260508055249 61 14 0.9 1.7 0.00 0.00 0.00 84 1016.5
20260508054745 61 1 0.9 1.7 0.00 0.00 0.00 84 1016.8
20260508054244 61 355 0.0 0.0 0.00 0.00 0.00 84 1016.9
20260508053740 61 320 0.0 0.0 0.00 0.00 0.00 84 1016.9
20260508053238 61 308 0.9 1.7 0.00 0.00 0.00 84 1016.9
20260508052735 61 325 1.7 1.7 0.00 0.00 0.00 85 1016.6
20260508052232 61 332 1.7 2.6 0.00 0.00 0.00 85 1016.5
20260508051728 61 336 1.7 1.7 0.00 0.00 0.00 85 1016.6
20260508051223 61 37 1.7 2.6 0.00 0.00 0.00 85 1016.2
20260508050720 61 26 0.0 0.0 0.00 0.00 0.00 84 1016.5
20260508050217 61 12 0.0 0.0 0.00 0.00 0.00 84 1016.8
20260508045713 61 349 1.7 2.6 0.00 0.00 0.00 84 1017.1
20260508045211 61 312 0.0 0.9 0.00 0.00 0.00 84 1017.2
20260508044708 61 293 0.9 1.7 0.00 0.00 0.00 85 1017.4
20260508044204 61 316 2.6 2.6 0.00 0.00 0.00 85 1017.2
20260508043700 60 10 0.9 0.9 0.00 0.00 0.00 86 1016.6
20260508043158 61 27 0.0 0.0 0.00 0.00 0.00 85 1016.3
20260508042654 61 64 1.7 2.6 0.00 0.00 0.00 85 1016.3
20260508042152 61 40 1.7 1.7 0.00 0.00 0.00 84 1016.6
20260508041648 61 315 2.6 2.6 0.00 0.00 0.00 84 1017.4
20260508041145 61 300 0.9 1.7 0.00 0.00 0.00 85 1017.4
20260508040642 61 25 0.0 0.9 0.00 0.00 0.00 84 1016.9
20260508040139 61 343 0.0 0.9 0.00 0.00 0.00 84 1017.2
20260508035636 61 339 0.0 0.0 0.00 0.00 0.00 84 1017.3
20260508035134 61 56 0.0 0.0 0.00 0.00 0.00 83 1017.3
20260508034630 61 57 0.9 0.9 0.00 0.00 0.00 83 1017.4
20260508034127 61 57 0.9 0.9 0.00 0.00 0.00 83 1017.7
20260508033625 61 24 0.9 0.9 0.00 0.00 0.00 83 1017.4
20260508033123 62 328 0.9 1.7 0.00 0.00 0.00 83 1018.1
20260508032619 62 311 2.6 3.5 0.00 0.00 0.00 82 1018.1
20260508032117 61 285 1.7 2.6 0.00 0.00 0.00 84 1017.8
20260508031614 61 267 1.7 1.7 0.00 0.00 0.00 84 1017.6
20260508031110 61 338 0.0 0.0 0.00 0.00 0.00 84 1017.2
20260508030606 61 339 0.0 0.0 0.00 0.00 0.00 83 1017.1
20260508030104 61 338 0.0 0.0 0.00 0.00 0.00 83 1016.9
20260508025600 61 329 0.0 0.0 0.00 0.00 0.00 83 1017.0
20260508025057 62 331 0.0 0.0 0.00 0.00 0.00 83 1016.8
20260508024553 62 34 0.9 0.9 0.00 0.00 0.00 82 1016.4
20260508024050 62 13 0.0 0.9 0.00 0.00 0.00 82 1016.6
20260508023547 62 341 1.7 2.6 0.00 0.00 0.00 81 1016.3
20260508023044 62 16 0.9 0.9 0.00 0.00 0.00 81 1015.8
20260508022540 62 35 0.0 0.0 0.00 0.00 0.00 81 1015.6
20260508022037 62 30 2.6 2.6 0.00 0.00 0.00 81 1015.5
20260508021533 62 353 1.7 3.5 0.00 0.00 0.00 81 1015.3
20260508021029 62 26 3.5 5.2 0.00 0.00 0.00 81 1015.4
20260508020527 62 29 1.7 2.6 0.00 0.00 0.00 80 1015.5
20260508020024 62 16 2.6 3.5 0.00 0.00 0.00 80 1015.7
20260508015521 62 29 1.7 2.6 0.00 0.00 0.00 80 1015.7
20260508015018 62 4 1.7 2.6 0.00 0.00 0.00 79 1016.0
20260508014515 62 1 2.6 2.6 0.00 0.00 0.00 79 1016.0
20260508014011 62 11 2.6 3.5 0.00 0.00 0.00 78 1015.8
20260508013507 62 30 0.9 0.9 0.00 0.00 0.00 78 1015.7
20260508013005 62 45 3.5 5.2 0.00 0.00 0.00 78 1015.9
20260508012502 62 40 1.7 2.6 0.00 0.00 0.00 77 1015.4
20260508011959 63 41 3.5 6.1 0.00 0.00 0.00 77 1015.5
20260508011457 63 57 1.7 2.6 0.00 0.00 0.00 77 1015.9
20260508010954 63 42 1.7 2.6 0.00 0.00 0.00 78 1016.1
20260508010451 63 12 1.7 1.7 0.00 0.00 0.00 76 1016.0